Flag for U.S.A. Weather past 2 weeks in Springfield, Massachusetts, U.S.A.

Now
33 °F

Mostly cloudy.


Feels Like: 29 °F
Forecast: 28 / 38 °F
Wind: 5 mph from North

Location: Barnes Municipal Airport

Current Time: Dec 22, 2014 at 3:04:08 AM

Latest Report: Dec 22, 2014 at 2:00 AM


Visibility: 10 mi

Pressure: 30.35 "Hg

Humidity: 88%

Dew point: 30 °F

Location of SpringfieldLocation

Historic Weather in Springfield — Graph

°F

Springfield temperature yesterday

Maximum temperature yesterday: 34 °F (at 3:53 PM)
Minimum temperature yesterday: 31 °F (at 12:53 AM)
Average temperature yesterday: 32 °F

Past Weeks' High & Low Weather Summary

 TemperatureHumidityPressure
High49 °F (Dec 17, 11:53 AM)93% (Dec 10, 3:53 AM)30.78 "Hg (Dec 10, 3:53 AM)
Low14 °F (Dec 8, 6:53 AM)37% (Dec 7, 12:53 PM)29.47 "Hg (Dec 10, 8:00 PM)
Average33 °F73%30.03 "Hg
* Reported Dec 7 2:53 AM — Dec 22 2:00 AM, Springfield, Weather by CustomWeather, © 2014

Note: Actual official high and low records may vary slightly from our data, if they occured in-between our weather recording intervals... More about our weather records

Advertising

Springfield weather history for previous 24 hours

 ConditionsComfort  
Time TempWeatherWind HumidityBarometerVisibility
2:00 AM
Dec 22
33 °FMostly cloudy.5 mph88%30.35 "Hg10 mi
12:53 AM33 °FOvercast.5 mph88%30.36 "Hg10 mi
11:53 PM
Dec 21
33 °FOvercast.3 mph88%30.37 "Hg10 mi
10:53 PM33 °FOvercast.5 mph88%30.37 "Hg9 mi
9:53 PM33 °FOvercast.5 mph88%30.37 "Hg10 mi
8:53 PM33 °FOvercast.6 mph88%30.36 "Hg10 mi
7:53 PM33 °FOvercast.5 mph88%30.36 "Hg10 mi
6:53 PM33 °FOvercast.6 mph88%30.35 "Hg10 mi
5:53 PM33 °FOvercast.5 mph88%30.34 "Hg10 mi
4:53 PM33 °FOvercast.6 mph85%30.32 "Hg10 mi
3:53 PM34 °FOvercast.6 mph85%30.31 "Hg10 mi
2:53 PM33 °FOvercast.6 mph85%30.31 "Hg10 mi
1:53 PM33 °FLow clouds.8 mph85%30.30 "Hg10 mi
1:01 PM33 °FFog.7 mph85%30.29 "Hg4 mi
11:53 AM32 °FLight snow. Ice fog.7 mph88%30.31 "Hg1 mi
11:00 AM32 °FLight snow. Ice fog.9 mph85%30.31 "Hg2 mi
9:53 AM32 °FLight snow. Ice fog.8 mph85%30.33 "Hg2 mi
8:53 AM31 °FLight snow. Ice fog.8 mph89%30.33 "Hg2 mi
8:00 AM31 °FIce fog.8 mph89%30.30 "Hg2 mi
7:53 AM31 °FIce fog.7 mph89%30.32 "Hg1 mi
6:53 AM31 °FLight snow. Ice fog.7 mph89%30.31 "Hg1 mi
5:53 AM31 °FLight snow. Ice fog.7 mph89%30.29 "Hg2 mi
4:53 AM31 °FLight snow. Ice fog.6 mph89%30.29 "Hg3 mi
3:53 AM31 °FLight snow. Ice fog.6 mph89%30.29 "Hg3 mi
Weather by CustomWeather, © 2014

See weather overviewHow to use our weather pages